If you wish to contribute or participate in the discussions about articles you are invited to join SKYbrary as a registered user

 Actions

Qeshm International Airport

From SKYbrary Wiki

OIKQ
Airport
ICAO: OIKQ – IATA: GSM
Summary
Name Qeshm International Airport
Region Middle East
Territory Iran IR.gif
Location Direstan, Hormuzgan Province
Serving Qeshm Island
Elevation 13.716 m
45 ft13.716 m
Coordinates 26° 45' 21.97" N, 55° 53' 43.49" E
Runways
Designator Length Width Surface ROPS
5/23 4226 m13,864.829 ft
45 m147.638 ft
ASP /


METAR
Observation OIKQ 171700Z 27006KT 6000 NSC 32/29 Q1003
Station Gheshm Island / Dayrestan
Date/Time 17 September 2019 17:00:00
Wind direction 270°
Wind speed 06 kts
Lowest cloud amount nil significant cloud
Temperature 32°C
Dew point 29°C
Humidity 84%
QNH 1003 hPa
Weather condition n/a

Also known as Dayrestan Airport, this airport serves the island of Qeshm in the straights of Hormuz, off the south coast of Iran.

Climatology

Warm Desert climate (Köppen climate classification BWh).

Maps

Terrain

Loading map...

Airport Layout

Loading map...


Accidents & Serious Incidents at or in vicinity of OIKQ

None on SKYbrary